Weather History for Rome, NY

Change the Weather History Date:

Monday, October 17, 2011

  Actual Average Record
Temperature  
Mean Temperature 47 °F -  
Max Temperature 55 °F 62 °F 81 °F (1980)
Min Temperature 39 °F 40 °F 29 °F (1981)
Degree Days  
Heating Degree Days 18    
Moisture  
Dew Point 41 °F    
Average Humidity 76    
Maximum Humidity 100    
Minimum Humidity 53    
Precipitation  
Precipitation 0.03 in - - ()
Sea Level Pressure  
Sea Level Pressure 29.66 in    
Wind  
Wind Speed 7 mph (West)    
Max Wind Speed 16 mph    
Max Gust Speed 31 mph    
Visibility 8 miles    
Events Rain    
Averages and records for this station are not official NWS values.
T = Trace of Precipitation, MM = Missing Value Source: NWS Daily Summary

Daily Weather History Graph

Daily Weather History Graph

Search for Another Location

Airport:

Trip Planner

Search our weather history database for the weather conditions in past years. The results will help you decide how hot, cold, wet, or windy it might be!

Date:

Astronomy

Oct. 17, 2011 Rise Set
Actual Time 7:17 AM EDT 6:15 PM EDT
Civil Twilight 6:48 AM EDT 6:44 PM EDT
Nautical Twilight 6:15 AM EDT 7:17 PM EDT
Astronomical Twilight 5:42 AM EDT 7:50 PM EDT
Moon 9:47 PM EDT (10/17) 12:28 PM EDT (10/17)
Length of Visible Light 11h 55m
Length of Day
10h 58m
Waning Gibbous, 74% of the Moon is Illuminated
Oct 17
Waning Gibbous
Oct 19
Last Quarter
Oct 26
New
Nov 2
First Quarter
Nov 10
Full

Hourly Weather History & Observations

Time (EDT) Temp. Windchill Dew Point Humidity Pressure Visibility Wind Dir Wind Speed Gust Speed Precip Events Conditions
12:08 AM 50.0 °F - 46.4 °F 87% 29.60 in 4.0 mi WNW 16.1 mph 31.1 mph 0.03 in Rain Heavy Rain
12:17 AM 50.0 °F - 44.6 °F 82% 29.61 in 10.0 mi WNW 11.5 mph - 0.03 in Rain Light Rain
12:53 AM 46.9 °F - 44.1 °F 90% 29.62 in 10.0 mi WNW 6.9 mph - 0.03 in   Scattered Clouds
1:53 AM 45.0 °F - 43.0 °F 93% 29.63 in 10.0 mi Calm Calm - N/A   Clear
2:33 AM 42.8 °F 41.1 °F 42.8 °F 100% 29.63 in 1.8 mi East 3.5 mph - N/A   Clear
2:48 AM 42.8 °F 41.1 °F 42.8 °F 100% 29.63 in 3.0 mi East 3.5 mph - N/A   Clear
2:53 AM 42.1 °F - 41.0 °F 96% 29.63 in 5.0 mi Calm Calm - N/A   Clear
3:48 AM 39.2 °F 35.0 °F 39.2 °F 100% 29.64 in 2.5 mi NNW 5.8 mph - N/A   Scattered Clouds
4:53 AM 42.1 °F - 41.0 °F 96% 29.66 in 3.0 mi Calm Calm - N/A   Partly Cloudy
6:53 AM 39.9 °F 37.8 °F 39.0 °F 97% 29.66 in 6.0 mi ENE 3.5 mph - N/A   Partly Cloudy
7:53 AM 41.0 °F - 39.9 °F 96% 29.67 in 9.0 mi Calm Calm - N/A   Clear
8:53 AM 46.9 °F - 42.1 °F 83% 29.67 in 10.0 mi East 3.5 mph - N/A   Clear
10:53 AM 54.0 °F - 39.0 °F 57% 29.67 in 10.0 mi SW 10.4 mph - N/A   Mostly Cloudy
11:53 AM 55.0 °F - 37.9 °F 53% 29.66 in 10.0 mi West 11.5 mph 23.0 mph N/A   Overcast
12:53 PM 54.0 °F - 39.0 °F 57% 29.65 in 10.0 mi West 8.1 mph - N/A   Overcast
1:53 PM 54.0 °F - 39.9 °F 59% 29.64 in 10.0 mi West 5.8 mph - N/A   Overcast
3:53 PM 54.0 °F - 39.9 °F 59% 29.64 in 10.0 mi WSW 3.5 mph - N/A   Overcast
4:53 PM 54.0 °F - 37.9 °F 55% 29.65 in 10.0 mi West 8.1 mph - N/A   Overcast
5:53 PM 54.0 °F - 39.0 °F 57% 29.66 in 10.0 mi WSW 4.6 mph - N/A   Overcast
6:53 PM 54.0 °F - 39.9 °F 59% 29.67 in 10.0 mi West 6.9 mph - N/A   Overcast
7:53 PM 53.1 °F - 37.9 °F 57% 29.68 in 10.0 mi West 6.9 mph - N/A   Overcast
8:53 PM 52.0 °F - 39.9 °F 63% 29.70 in 10.0 mi Calm Calm - N/A   Overcast
9:53 PM 52.0 °F - 39.9 °F 63% 29.71 in 10.0 mi Calm Calm - N/A   Overcast
10:53 PM 51.1 °F - 39.9 °F 66% 29.72 in 10.0 mi Calm Calm - N/A   Overcast
11:53 PM 50.0 °F - 42.1 °F 74% 29.71 in 10.0 mi East 3.5 mph - N/A   Overcast